Location: Dal�� Lhota
(48.7500°N, 14.0167°E)
Time: 22:51:54
(UTC+00:00)

Okean 1 Rocket - Pass Details

Date: 24 September 2020
Orbit: 605 x 635 km, 82.5° (Epoch: 25 October)

Event Time Altitude Azimuth Distance (km) Brightness Sun altitude
Rises 18:16:44 0° 173° (S) 2,919 6.3 -13.9°
Reaches altitude 10° 18:19:00 10° 168° (SSE) 2,017 5.4 -14.2°
Maximum altitude 18:23:19 49° 94° (E) 822 3.3 -14.9°
Drops below altitude 10° 18:27:40 10° 20° (NNE) 2,032 5.7 -15.6°
Sets 18:29:58 0° 15° (NNE) 2,944 6.6 -16.0°
